Regional Weather Roundup
Issued by NWS

Home | Current Version | Previous Version | Text Only | Print | Product List | Glossary Off
Versions: 1 2 3 4 5 6 7 8 9 10 11 12 13 14 15 16 17 18 19 20 21 22 23 24 25 26 27 28 29 30 31 32 33 34 35 36 37 38 39 40 41 42 43 44 45 46 47 48 49 50

000
ASUS43 KMPX 141710
RWRMN
WEATHER ROUNDUP FOR MINNESOTA
NATIONAL WEATHER SERVICE TWIN CITIES/CHANHASSEN MN
1200 PM CDT SUN SEP 14 2014


NOTE: "FAIR" INDICATES FEW OR NO CLOUDS BELOW 12,000 FEET WITH NO
SIGNIFICANT WEATHER AND/OR OBSTRUCTIONS TO VISIBILITY. N/A MEANS
CURRENT SKY AND/OR WEATHER CONDITIONS ARE NOT AVAILABLE.

MNZ060>063-068>070-141800-
   Twin Cities Metro

CITY           SKY/WX    TMP DP  RH WIND       PRES   REMARKS
TWIN CITIES    PTSUNNY   60  42  51 W8G16     30.13R
ST PAUL        SUNNY     61  44  53 W9        30.13S
CRYSTAL        SUNNY     63  39  41 W14G20    30.11S
LAKEVILLE      SUNNY     61  45  55 W8        30.13F
EDEN PRAIRIE   SUNNY     62  41  46 W10       30.12S
SOUTH ST PAUL  SUNNY     62  43  50 SW8       30.12S
LAKE ELMO      FAIR      61  46  59 SW9       30.12S
$$
MNZ001>005-007-008-013>017-022>024-027-028-141800-
   Northwest Minnesota

CITY           SKY/WX    TMP DP  RH WIND       PRES   REMARKS
BEMIDJI        CLOUDY    48  43  82 W16       30.06S
HALLOCK          N/A     52  46  82 NW13G18   30.08R
ROSEAU         CLOUDY    52  46  82 W7        30.05R
WARROAD        PTSUNNY   54  46  76 NW13      30.04R
THIEF RVR FALL CLOUDY    48  45  87 NW12      30.08R
CROOKSTON      CLOUDY    52  45  76 NW13G20   30.10S
FOSSTON        CLOUDY    48  43  81 W9        30.09S
DETROIT LAKES  CLOUDY    50  45  81 NW9       30.12R
MOORHEAD       PTSUNNY   55  46  71 N8        30.13R
PARK RAPIDS    CLOUDY    50  42  74 W12       30.08S
MAHNOMEN       CLOUDY    49  44  84 NW10      30.09S
$$
MNZ006-009>011-018-025>026-141800-
   North Central Minnesota

CITY           SKY/WX    TMP DP  RH WIND       PRES   REMARKS
BAUDETTE       PTSUNNY   53  45  74 NW10G17   30.01R
FLAG ISLAND    MOSUNNY   52  45  76 W13       30.00R
INTL FALLS     PTSUNNY   54  45  71 W15G22    29.97R
WASKISH        CLOUDY    50  46  87 W12G18    30.04R
BIG FORK       CLOUDY    48  45  87 W5        30.03R
LONGVILLE      PTSUNNY   54  43  66 W8        30.06S
GRAND RAPIDS   CLOUDY    52  39  62 W12G20    30.05R
CRANE LAKE     CLOUDY    48  45  87 W5        29.98S
ORR            CLOUDY    50  41  71 W6        29.97S
COOK           CLOUDY    52  43  71 W13G22    30.01R
WALKER         CLOUDY    52  42  68 W9        30.06S
$$
MNZ012-019>021-037-141800-
   Northeast Minnesota

CITY           SKY/WX    TMP DP  RH WIND       PRES   REMARKS
DULUTH         PTSUNNY   56  40  55 W22G30    30.02R
ELY            CLOUDY    50  41  71 W13G22    29.97R
HIBBING        CLOUDY    52  41  66 W10G20    30.02S
EVELETH        CLOUDY    52  41  66 W14G21    30.01S
DULUTH HARBOR  MOSUNNY   59  43  55 W22       30.02S
TWO HARBORS    MOSUNNY   55  43  62 W14G20    29.98S
SILVER BAY     SUNNY     55  45  67 SW8G22    29.97R
GRAND MARAIS     N/A     52  48  86 SW14      29.96S
G MARAIS ARPRT PTSUNNY   52  39  62 SW12G20   29.96R
$$
MNZ029>031-032-039>041-046>048-054>057-064-141800-
   West Central Minnesota

CITY           SKY/WX    TMP DP  RH WIND       PRES   REMARKS
FERGUS FALLS   CLOUDY    52  41  66 NW9       30.14S
WHEATON        MOSUNNY   54  43  66 NW13      30.16F
MORRIS         MOSUNNY   57  43  58 W14       30.14R
ALEXANDRIA     MOSUNNY   53  42  66 NW10      30.14R
ELBOW LAKE     PTSUNNY   52  42  69 NW7       30.13S
WADENA         CLOUDY    50  43  76 W9        30.11R
GLENWOOD       SUNNY     55  43  62 W10G17    30.14R
APPLETON       PTSUNNY   55  43  62 W9        30.16R
BENSON         PTSUNNY   55  43  62 NW9       30.15S
ORTONVILLE     PTSUNNY   54  41  62 NW7       30.16S
MADISON        CLOUDY    59  43  55 NW9       30.16S
WILLMAR        FAIR      57  43  58 W10       30.16S
$$
MNZ033>034-036-042>043-049>051-058-059-141800-
   Central Minnesota

CITY           SKY/WX    TMP DP  RH WIND       PRES   REMARKS
ST CLOUD       SUNNY     61  39  44 W16       30.11S
SAUK CENTRE    FAIR      55  42  62 W12       30.13S
PAYNESVILLE    SUNNY     55  39  55 SW14G20   30.14S
AITKIN         PTSUNNY   57  45  62 W8        30.06S
PINE RIVER     CLOUDY    52  43  71 W5        30.11R
BRAINERD       CLOUDY    53  41  63 W10G20    30.09F
STAPLES        CLOUDY    52  41  66 W10       30.10S
LONG PRAIRIE   FAIR      54  41  62 W12G17    30.12S
LITTLE FALLS   SUNNY     54  39  58 W12G18    30.10F
LITCHFIELD       N/A     57  43  58 W9        30.14S
BUFFALO        SUNNY     58  41  53 W8        30.14R
MAPLE LAKE     SUNNY     59  43  55 W8        30.14R
$$
MNZ037-044-045-052-053-141800-
   East Central Minnesota

CITY           SKY/WX    TMP DP  RH WIND       PRES   REMARKS
PRINCETON      SUNNY     61  41  48 W5        30.10S
MORA           SUNNY     55  41  58 W9        30.10S
CAMBRIDGE      SUNNY     61  45  55 W9G16     30.08S
RUSH CITY      SUNNY     59  42  52 W8        30.09S
MOOSE LAKE     MOSUNNY   55  39  54 W12G23    30.04R
HINCKLEY       FAIR      57  41  54 W10G20    30.08S
CLOQUET        PTSUNNY   54  39  58 W17G23    30.04R
MCGREGOR       CLOUDY    54  41  62 W8G18     30.07R
$$
MNZ071>073-080-081-089-090-097-098-141800-
   Southwest Minnesota

CITY           SKY/WX    TMP DP  RH WIND       PRES   REMARKS
MONTEVIDEO     CLOUDY    59  45  58 NW8       30.17S
GRANITE FALLS  CLOUDY    56  40  55 NW8       30.18S
CANBY          PTSUNNY   57  40  52 W8        30.18S
MARSHALL       PTSUNNY   59  36  41 N7        30.16F
REDWOOD FALLS  MOSUNNY   61  38  42 NW8       30.16S
OLIVIA         PTSUNNY   57  41  54 NW9       30.15S
PIPESTONE      SUNNY     59  37  44 N3        30.17S
WINDOM         SUNNY     63  41  45 W6        30.17S
WORTHINGTON    SUNNY     61  39  44 CALM      30.18S
JACKSON        SUNNY     59  39  47 W3        30.17F
TRACY          MOSUNNY   61  40  46 CALM      30.17S
SLAYTON        SUNNY     59  36  41 CALM      30.18S
$$
MNZ065>067-074>077-082>085-091>093-141800-
   South Central Minnesota

CITY           SKY/WX    TMP DP  RH WIND       PRES   REMARKS
MANKATO        SUNNY     61  43  51 W5        30.16S
NEW ULM        MOSUNNY   61  43  51 W5        30.16S
ST JAMES       SUNNY     63  39  42 CALM      30.17F
FAIRMONT       SUNNY     63  43  48 W5        30.17F
GLENCOE        MOSUNNY   60  40  48 W9        30.14S
FARIBAULT      SUNNY     63  39  42 SW7       30.15S
OWATONNA       SUNNY     61  45  55 W8        30.16S
WASECA         SUNNY     59  37  44 SW6       30.17S
ALBERT LEA     SUNNY     63  48  59 SW7       30.16S
$$
MNZ078>079-086>088-094>096-141800-
   Southeast Minnesota

CITY           SKY/WX    TMP DP  RH WIND       PRES   REMARKS
ROCHESTER      SUNNY     63  47  55 SW14G21   30.16S
RED WING       SUNNY     63  45  51 SW10G16   30.12S
STANTON        SUNNY     61  43  51 SW9       30.13S
DODGE CENTER   SUNNY     61  48  63 SW15      30.15S
WINONA         SUNNY     64  46  52 SW9       30.14S
AUSTIN         SUNNY     61  48  63 W10G20    30.16S
PRESTON        SUNNY     61  51  68 SW16      30.16F
$$
ABBREVIATIONS USED IN REMARKS
   TC - TEMPERATURES IN CELSIUS
  WCI - WIND CHILL INDEX
   HX - HEAT INDEX
  VSB - VISIBILITY
$$



USA.gov is the U.S. government's official web portal to all federal, state and local government web resources and services.